Myrtle Beach, SC

10:51 PM EDT on July 27, 2017 (GMT -0400)
Myrtle Beach International

Weather History for KMYR - July, 2013

Change the Weather History Date:

Wednesday, July 3, 2013

  Actual Average Record
Temperature  
Mean Temperature 80 °F -  
Max Temperature 84 °F 84 °F 93 °F (2016)
Min Temperature 75 °F 69 °F 62 °F (2010)
Cooling Degree Days 14    
Growing Degree Days 30 (Base 50)    
Moisture  
Dew Point 75 °F    
Average Humidity 85    
Maximum Humidity 89    
Minimum Humidity 74    
Precipitation  
Precipitation 0.00 in - - ()
Sea Level Pressure  
Sea Level Pressure 30.20 in    
Wind  
Wind Speed 11 mph (SSE)    
Max Wind Speed 18 mph    
Max Gust Speed 23 mph    
Visibility 10 miles    
Events Rain    
Averages and records for this station are not official NWS values.
T = Trace of Precipitation, MM = Missing Value Source: NWS Daily Summary

Daily Weather History Graph

Daily Weather History Graph

Search for Another Location

Airport or City:

Trip Planner

Search our weather history database for the weather conditions in past years. The results will help you decide how hot, cold, wet, or windy it might be!

Date:

Astronomy

Jul. 03, 2013 Rise Set
Actual Time 6:09 AM EDT 8:29 PM EDT
Civil Twilight 5:41 AM EDT 8:58 PM EDT
Nautical Twilight 5:05 AM EDT 9:34 PM EDT
Astronomical Twilight 4:26 AM EDT 10:12 PM EDT
Moon 2:41 AM EDT (7/3) 4:43 PM EDT (7/3)
Length of Visible Light 15h 17m
Length of Day
14h 19m
Waning Crescent, 18% of the Moon is Illuminated
Jul 3
Waning Crescent
Jul 8
New
Jul 15
First Quarter
Jul 22
Full
Jul 29
Last Quarter

Hourly Weather History & Observations

Time (EDT) Temp. Heat Index Dew Point Humidity Pressure Visibility Wind Dir Wind Speed Gust Speed Precip Events Conditions
12:15 AM 78.8 °F - 73.4 °F 83% 30.18 in 10.0 mi South 9.2 mph - N/A   Clear
12:35 AM 77.0 °F - 73.4 °F 89% 30.18 in 10.0 mi SSE 9.2 mph - N/A   Clear
12:55 AM 77.0 °F - 73.4 °F 89% 30.18 in 10.0 mi SSE 8.1 mph - N/A   Clear
1:15 AM 77.0 °F - 73.4 °F 89% 30.18 in 10.0 mi SSE 9.2 mph - N/A   Clear
1:35 AM 78.8 °F - 73.4 °F 83% 30.18 in 10.0 mi South 9.2 mph - N/A   Clear
1:55 AM 78.8 °F - 73.4 °F 83% 30.18 in 10.0 mi SSE 10.4 mph - N/A   Mostly Cloudy
2:15 AM 78.8 °F - 73.4 °F 83% 30.18 in 10.0 mi SSE 10.4 mph - N/A   Partly Cloudy
2:35 AM 78.8 °F - 73.4 °F 83% 30.17 in 10.0 mi SSE 9.2 mph - N/A   Clear
2:55 AM 77.0 °F - 73.4 °F 89% 30.16 in 10.0 mi SSE 10.4 mph - N/A   Partly Cloudy
3:15 AM 77.0 °F - 73.4 °F 89% 30.16 in 10.0 mi SSE 6.9 mph - N/A   Clear
3:35 AM 77.0 °F - 73.4 °F 89% 30.16 in 10.0 mi SSE 8.1 mph - N/A   Clear
3:55 AM 78.8 °F - 75.2 °F 89% 30.16 in 10.0 mi SSE 10.4 mph - N/A   Partly Cloudy
4:15 AM 78.8 °F - 75.2 °F 89% 30.16 in 10.0 mi SSE 10.4 mph - N/A   Scattered Clouds
4:35 AM 78.8 °F - 73.4 °F 83% 30.16 in 10.0 mi SSE 8.1 mph - N/A   Scattered Clouds
4:55 AM 78.8 °F - 75.2 °F 89% 30.16 in 10.0 mi SSE 11.5 mph - N/A   Scattered Clouds
5:15 AM 78.8 °F - 75.2 °F 89% 30.17 in 10.0 mi SSE 10.4 mph - N/A   Scattered Clouds
5:35 AM 78.8 °F - 75.2 °F 89% 30.18 in 10.0 mi SE 12.7 mph - N/A   Partly Cloudy
5:50 AM 78.8 °F - 75.2 °F 89% 30.18 in 10.0 mi South 8.1 mph - N/A   Mostly Cloudy
6:45 AM 78.8 °F - 75.2 °F 89% 30.19 in 10.0 mi SSE 6.9 mph - N/A   Mostly Cloudy
7:50 AM 80.6 °F 86.2 °F 75.2 °F 84% 30.20 in 10.0 mi South 11.5 mph - N/A   Scattered Clouds
9:49 AM 82.4 °F 89.5 °F 75.2 °F 79% 30.22 in 10.0 mi South 11.5 mph - N/A   Mostly Cloudy
10:20 AM 78.8 °F - 73.4 °F 83% 30.23 in 3.0 mi South 17.3 mph 23.0 mph N/A Rain Rain
10:45 AM 75.2 °F - 71.6 °F 89% 30.24 in 6.0 mi SSE 17.3 mph - N/A Rain Light Rain
11:45 AM 80.6 °F 86.2 °F 75.2 °F 84% 30.23 in 8.0 mi South 17.3 mph - N/A   Scattered Clouds
12:15 PM 82.4 °F 90.9 °F 77.0 °F 84% 30.23 in 8.0 mi South 17.3 mph - N/A   Scattered Clouds
12:47 PM 82.4 °F 92.4 °F 78.8 °F 89% 30.23 in 10.0 mi SSE 17.3 mph - N/A   Scattered Clouds
1:45 PM 84.2 °F 94.1 °F 77.0 °F 79% 30.23 in 10.0 mi South 18.4 mph - N/A   Scattered Clouds
2:50 PM 84.2 °F 92.3 °F 75.2 °F 74% 30.21 in 10.0 mi SE 13.8 mph - N/A   Scattered Clouds
3:45 PM 84.2 °F 92.3 °F 75.2 °F 74% 30.20 in 10.0 mi SSE 17.3 mph - N/A   Scattered Clouds
5:45 PM 84.2 °F 92.3 °F 75.2 °F 74% 30.20 in 10.0 mi SSE 11.5 mph - N/A   Mostly Cloudy
6:45 PM 82.4 °F 89.5 °F 75.2 °F 79% 30.21 in 10.0 mi SSE 17.3 mph - N/A   Scattered Clouds
8:45 PM 80.6 °F 85.4 °F 73.4 °F 79% 30.23 in 10.0 mi SSE 9.2 mph - N/A   Clear
9:50 PM 78.8 °F - 75.2 °F 89% 30.24 in 10.0 mi SSE 9.2 mph - N/A   Clear
10:55 PM 78.8 °F - 75.2 °F 89% 30.26 in 10.0 mi SE 12.7 mph - N/A   Clear
11:15 PM 78.8 °F - 75.2 °F 89% 30.26 in 10.0 mi SSE 10.4 mph - N/A   Partly Cloudy
11:35 PM 78.8 °F - 75.2 °F 89% 30.26 in 10.0 mi SSE 11.5 mph - N/A   Partly Cloudy
11:55 PM 78.8 °F - 75.2 °F 89% 30.26 in 10.0 mi SSE 11.5 mph - N/A   Clear